EN

Hourly Weather Acatlan de Osorio

Today, 29 November, Sunday

Time Temperature Precipitation Wind Pressure Humidity
00:00 +20°C° 0 mm 1 mps 659 mmHg 54%
01:00 +20°C° 0 mm 1 mps 659 mmHg 57%
02:00 +19°C° 0 mm 1 mps 658 mmHg 61%
03:00 +19°C° 0 mm 1 mps 658 mmHg 62%
04:00 +17°C° 0 mm 0 mps 658 mmHg 63%
05:00 +16°C° 0 mm 0 mps 658 mmHg 64%
06:00 +18°C° 0 mm 0 mps 659 mmHg 57%
07:00 +20°C° 0 mm 0 mps 660 mmHg 50%
08:00 +23°C° 0 mm 0 mps 661 mmHg 43%
09:00 +26°C° 0 mm 1 mps 661 mmHg 42%
10:00 +28°C° 0 mm 1 mps 661 mmHg 40%
11:00 +29°C° 0 mm 2 mps 661 mmHg 38%
12:00 +30°C° 0 mm 2 mps 661 mmHg 36%
13:00 +31°C° 0 mm 2 mps 660 mmHg 34%
14:00 +31°C° 0 mm 2 mps 660 mmHg 32%
15:00 +30°C° 0 mm 2 mps 660 mmHg 36%
16:00 +28°C° 0 mm 1 mps 660 mmHg 39%
17:00 +26°C° 0 mm 1 mps 660 mmHg 43%
18:00 +25°C° 0 mm 1 mps 661 mmHg 49%
19:00 +24°C° 0 mm 2 mps 661 mmHg 56%
20:00 +23°C° 0 mm 2 mps 661 mmHg 62%
21:00 +21°C° 0 mm 2 mps 661 mmHg 67%
22:00 +21°C° 0 mm 2 mps 661 mmHg 71%
23:00 +20°C° 0 mm 2 mps 661 mmHg 76%

Tomorrow, 30 November, Monday

Time Temperature Precipitation Wind Pressure Humidity
00:00 +19°C° 0 mm 2 mps 661 mmHg 77%
01:00 +19°C° 0 mm 2 mps 660 mmHg 78%
02:00 +19°C° 0 mm 2 mps 660 mmHg 80%
03:00 +19°C° 0 mm 1 mps 660 mmHg 80%
04:00 +19°C° 0 mm 1 mps 660 mmHg 81%
05:00 +19°C° 0 mm 1 mps 661 mmHg 82%
06:00 +20°C° 0 mm 1 mps 661 mmHg 75%
07:00 +21°C° 0 mm 2 mps 662 mmHg 68%
08:00 +23°C° 0 mm 2 mps 663 mmHg 61%
09:00 +25°C° 0 mm 2 mps 663 mmHg 55%
10:00 +27°C° 0 mm 3 mps 663 mmHg 48%
11:00 +29°C° 0 mm 4 mps 663 mmHg 42%
12:00 +29°C° 0 mm 4 mps 663 mmHg 42%
13:00 +29°C° 0 mm 5 mps 662 mmHg 41%
14:00 +28°C° 0 mm 6 mps 661 mmHg 41%
15:00 +26°C° 0 mm 6 mps 661 mmHg 46%
16:00 +23°C° 0 mm 5 mps 661 mmHg 52%
17:00 +21°C° 0 mm 5 mps 661 mmHg 58%
18:00 +20°C° 0 mm 5 mps 661 mmHg 61%
19:00 +19°C° 0 mm 4 mps 661 mmHg 64%
20:00 +18°C° 0 mm 4 mps 661 mmHg 67%
21:00 +17°C° 0 mm 3 mps 661 mmHg 68%
22:00 +17°C° 0 mm 3 mps 661 mmHg 70%
23:00 +16°C° 0 mm 2 mps 661 mmHg 71%

Day after tomorrow, 1 December, Tuesday

Time Temperature Precipitation Wind Pressure Humidity
00:00 +16°C° 0 mm 2 mps 661 mmHg 72%
01:00 +16°C° 0 mm 2 mps 661 mmHg 74%
02:00 +15°C° 0 mm 2 mps 660 mmHg 75%
03:00 +15°C° 0 mm 2 mps 660 mmHg 75%
04:00 +15°C° 0 mm 2 mps 660 mmHg 75%
05:00 +15°C° 0 mm 2 mps 661 mmHg 74%
06:00 +16°C° 0 mm 2 mps 661 mmHg 69%
07:00 +17°C° 0 mm 2 mps 662 mmHg 64%
08:00 +18°C° 0 mm 2 mps 662 mmHg 59%
09:00 +19°C° 0 mm 2 mps 662 mmHg 57%
10:00 +20°C° 0 mm 1 mps 661 mmHg 56%
11:00 +21°C° 0 mm 1 mps 661 mmHg 54%
12:00 +22°C° 0 mm 1 mps 660 mmHg 52%
13:00 +23°C° 0 mm 1 mps 660 mmHg 50%
14:00 +23°C° 0 mm 1 mps 659 mmHg 49%
15:00 +22°C° 0 mm 1 mps 659 mmHg 53%
16:00 +21°C° 0 mm 1 mps 659 mmHg 57%
17:00 +18°C° 0 mm 0 mps 658 mmHg 61%
18:00 +20°C° 0 mm 1 mps 659 mmHg 63%
19:00 +19°C° 0 mm 1 mps 659 mmHg 65%
20:00 +19°C° 0 mm 1 mps 660 mmHg 67%
21:00 +19°C° 0 mm 1 mps 660 mmHg 69%
22:00 +18°C° 0 mm 1 mps 660 mmHg 71%
23:00 +18°C° 0 mm 1 mps 659 mmHg 72%

2 December, Wednesday

Time Temperature Precipitation Wind Pressure Humidity
00:00 +16°C° 0 mm 0 mps 659 mmHg 74%
01:00 +15°C° 0 mm 0 mps 659 mmHg 77%
02:00 +15°C° 0 mm 0 mps 658 mmHg 79%
03:00 +15°C° 0 mm 0 mps 658 mmHg 80%
04:00 +14°C° 0 mm 0 mps 659 mmHg 81%
05:00 +14°C° 0 mm 0 mps 659 mmHg 83%
06:00 +16°C° 0 mm 0 mps 660 mmHg 74%
07:00 +18°C° 0 mm 0 mps 660 mmHg 66%
08:00 +20°C° 0 mm 0 mps 661 mmHg 58%
09:00 +24°C° 0 mm 1 mps 661 mmHg 53%
10:00 +25°C° 0 mm 1 mps 661 mmHg 48%
11:00 +27°C° 0 mm 2 mps 661 mmHg 43%
12:00 +28°C° 0 mm 2 mps 661 mmHg 40%
13:00 +28°C° 0 mm 3 mps 660 mmHg 36%
14:00 +29°C° 0 mm 3 mps 660 mmHg 32%
15:00 +27°C° 0 mm 2 mps 660 mmHg 36%
16:00 +26°C° 0 mm 2 mps 660 mmHg 39%
17:00 +24°C° 0 mm 1 mps 660 mmHg 43%
18:00 +23°C° 0 mm 1 mps 660 mmHg 47%
19:00 +22°C° 0 mm 1 mps 660 mmHg 51%
20:00 +21°C° 0 mm 1 mps 660 mmHg 55%
21:00 +18°C° 0 mm 0 mps 660 mmHg 58%
22:00 +17°C° 0 mm 0 mps 660 mmHg 62%
23:00 +17°C° 0 mm 0 mps 660 mmHg 65%

3 December, Thursday

Time Temperature Precipitation Wind Pressure Humidity
00:00 +17°C° 0 mm 0 mps 659 mmHg 68%
01:00 +18°C° 0 mm 1 mps 659 mmHg 70%
02:00 +18°C° 0 mm 1 mps 659 mmHg 73%
03:00 +18°C° 0 mm 1 mps 659 mmHg 76%
04:00 +16°C° 0 mm 1 mps 659 mmHg 78%
05:00 +16°C° 0 mm 1 mps 659 mmHg 81%
06:00 +19°C° 0 mm 1 mps 660 mmHg 73%
07:00 +21°C° 0 mm 1 mps 661 mmHg 65%
08:00 +22°C° 0 mm 1 mps 662 mmHg 57%
09:00 +24°C° 0 mm 1 mps 662 mmHg 51%
10:00 +26°C° 0 mm 1 mps 662 mmHg 44%
11:00 +28°C° 0 mm 1 mps 662 mmHg 38%
12:00 +29°C° 0 mm 1 mps 661 mmHg 35%
13:00 +29°C° 0 mm 2 mps 661 mmHg 33%
14:00 +30°C° 0 mm 3 mps 661 mmHg 30%
15:00 +28°C° 0 mm 2 mps 660 mmHg 35%
16:00 +26°C° 0 mm 2 mps 660 mmHg 40%
17:00 +25°C° 0 mm 1 mps 660 mmHg 45%
18:00 +23°C° 0 mm 2 mps 661 mmHg 51%
19:00 +21°C° 0 mm 2 mps 661 mmHg 57%
20:00 +20°C° 0 mm 2 mps 661 mmHg 63%
21:00 +20°C° 0 mm 2 mps 661 mmHg 66%
22:00 +19°C° 0 mm 2 mps 661 mmHg 70%
23:00 +18°C° 0 mm 2 mps 661 mmHg 74%

4 December, Friday

Time Temperature Precipitation Wind Pressure Humidity
00:00 +18°C° 0 mm 2 mps 660 mmHg 76%
01:00 +17°C° 0 mm 2 mps 660 mmHg 78%
02:00 +17°C° 0 mm 2 mps 660 mmHg 80%
03:00 +17°C° 0 mm 2 mps 660 mmHg 82%
04:00 +16°C° 0 mm 2 mps 660 mmHg 83%
05:00 +16°C° 0 mm 1 mps 660 mmHg 84%
06:00 +19°C° 0 mm 1 mps 660 mmHg 77%
07:00 +20°C° 0 mm 1 mps 661 mmHg 69%
08:00 +22°C° 0 mm 1 mps 662 mmHg 61%
09:00 +24°C° 0 mm 1 mps 662 mmHg 55%
10:00 +26°C° 0 mm 1 mps 662 mmHg 48%
11:00 +28°C° 0 mm 1 mps 662 mmHg 41%
12:00 +28°C° 0 mm 2 mps 662 mmHg 38%
13:00 +29°C° 0 mm 2 mps 661 mmHg 35%
14:00 +29°C° 0 mm 2 mps 661 mmHg 32%
15:00 +28°C° 0 mm 3 mps 661 mmHg 38%
16:00 +26°C° 0 mm 3 mps 660 mmHg 43%
17:00 +24°C° 0 mm 3 mps 660 mmHg 49%
18:00 +22°C° 0 mm 3 mps 661 mmHg 55%
19:00 +20°C° 0 mm 3 mps 661 mmHg 61%
20:00 +19°C° 0 mm 3 mps 661 mmHg 67%
21:00 +18°C° 0 mm 3 mps 661 mmHg 69%
22:00 +18°C° 0 mm 3 mps 661 mmHg 71%
23:00 +17°C° 0 mm 2 mps 661 mmHg 74%
Show more